weather.gov     
National Weather Service

Terminal Aerodrome Forecast
NWS Homepage
This page is being discontinued on March 12, 2014.
The same data is available at this site. Please update your bookmarks.
Thank you, and we apologize for the inconvenience.
Please send an email to SR-SRH.Webmaster@noaa.gov with any concerns.


Current Version
Previous Version:    01  02  03  04  05  06  07  08  09  10  11  12  13  14  15  16  17  18  19  20  21  22  23  24  25  26  27  28  29  
[Printable]
525
FTUS41 KPHI 222000 AAA
TAFILG
TAF AMD
KILG 222023Z 2220/2318 07007KT P6SM SCT020 OVC050
      TEMPO 2221/2223 -RA BKN020 OVC035
     FM222300 07005KT P6SM -RA BKN020 OVC035
     FM230100 07005KT 4SM -RA BR BKN006 OVC015
     FM230500 06007KT 2SM -RA BR OVC004
     FM231700 10005KT 5SM BR OVC006=


U.S. Dept. of Commerce
NOAA National Weather Service
1325 East West Highway
Silver Spring, MD 20910
E-mail: w-nws.webmaster@noaa.gov
Page last modified: May 16, 2007
NATIONAL WEATHER SERVICE: for Safety, for Work, for Fun - FOR LIFE